Location: Brabourne
(51.1333°N, 1.0000°E)
Time: 22:26:41
(UTC+00:00)

Cosmos 1356 - Pass Details

Date: 20 June 2021
Orbit: 438 x 439 km, 81.1° (Epoch: 02 August)

Event Time Altitude Azimuth Distance (km) Brightness Sun altitude
Exits shadow 00:38:07 32° 178° (S) 784 4.0 -14.9°
Maximum altitude 00:39:32 72° 101° (E) 468 3.4 -14.9°
Drops below altitude 10° 00:42:56 10° 16° (NNE) 1,564 7.5 -14.8°
Sets 00:45:01 0° 15° (NNE) 2,439 9.1 -14.7°
